KAMN

Details ICAO KAMN
Name GRATIOT COMMUNITY
Region United States
Timezone America/Detroit (UTC-4.0)
Plans Departing 4
Arriving 6
Stats Elevation 754 ft / 230 m (AMSL)
Location 43.321899° -84.688305°
Runways 2
Magnetic Variation 6.526° W
Sunrise 2018-05-27 10:05:40 UTC / 2018-05-27 06:05:40 Local
Sunset 2018-05-28 01:09:05 UTC / 2018-05-27 21:09:05 Local
Advertisement - Login to hide

Runways

ID Width Length Bearing (true) Bearing (mag) Surface Threshold Offset Overrun Length
09 75 ft / 23 m 4,986 ft / 1,520 m 90.24° 96.77° Asphalt 0 ft / 0 m 0 ft / 0 m
18 75 ft / 23 m 3,201 ft / 976 m 180.25° 186.78° Asphalt 0 ft / 0 m 0 ft / 0 m
27 75 ft / 23 m 4,986 ft / 1,520 m 270.25° 276.78° Asphalt 0 ft / 0 m 0 ft / 0 m
36 75 ft / 23 m 3,201 ft / 976 m 0.25° 6.78° Asphalt 0 ft / 0 m 0 ft / 0 m

Approach Navaids

Runway Type Ident Frequency Range Bearing (true) Bearing (mag) Slope Elevation
09 Localiser IGTX 108.90 MHz 18 nm / 33 km 88.76° 95.29° - 754 ft / 230 m (AMSL)

Map

Weather


0- 5 10 15 20 25 30 35+ Temperature / ° C

Clouds and Precipitation
Forecast for 2018-05-27 12:00 UTC. Updated an hour ago

Ground ~20,000 ft ~40,000 ft Winds

METAR

KAMN 271218Z AUTO 19004KT 10SM SCT110 19/19 A2989 RMK AO2 T01880188

TAF

Not found

Frequencies

Recorded 124.17 MHz AWOS 3
Clearance 119.25 MHz CLNC DEL
Unicom 122.80 MHz CTAF/UNICOM
Approach 126.45 MHz SAGINAW APP/DEP
Warning: Do not use this data for real-world aviation or navigation. No guarantee of current accuracy is given.